San Jose, Costa Rica

7:24 AM CST on May 27, 2017 (GMT -0600)
Juan Santamaria International

Weather History for MROC - October, 2013

Change the Weather History Date:

Wednesday, October 2, 2013

  Actual Average Record
Temperature  
Mean Temperature 71 °F -  
Max Temperature 80 °F 78 °F 87 °F (2016)
Min Temperature 62 °F 64 °F 61 °F (2016)
Cooling Degree Days 6    
Growing Degree Days 21 (Base 50)    
Moisture  
Dew Point 66 °F    
Average Humidity 87    
Maximum Humidity 100    
Minimum Humidity 52    
Precipitation  
Precipitation 0.08 in 0.42 in - ()
Sea Level Pressure  
Sea Level Pressure 29.94 in    
Wind  
Wind Speed 4 mph ()    
Max Wind Speed 10 mph    
Max Gust Speed -    
Visibility 6.3 miles    
Events Rain , Thunderstorm    
Averages and records for this station are not official NWS values.
T = Trace of Precipitation, MM = Missing Value Source: Averaged Metar Reports

Daily Weather History Graph

Daily Weather History Graph

Search for Another Location

Airport or City:

Trip Planner

Search our weather history database for the weather conditions in past years. The results will help you decide how hot, cold, wet, or windy it might be!

Date:

Astronomy

Oct. 02, 2013 Rise Set
Actual Time 5:25 AM CST 5:26 PM CST
Civil Twilight 5:04 AM CST 5:47 PM CST
Nautical Twilight 4:40 AM CST 6:12 PM CST
Astronomical Twilight 4:15 AM CST 6:36 PM CST
Moon 3:19 AM CST (10/2) 3:46 PM CST (10/2)
Length of Visible Light 12h 43m
Length of Day
12h 01m
Waning Crescent, 6% of the Moon is Illuminated
Oct 2
Waning Crescent
Oct 4
New
Oct 11
First Quarter
Oct 18
Full
Oct 26
Last Quarter

Hourly Weather History & Observations

Time (CST) Temp. Heat Index Dew Point Humidity Pressure Visibility Wind Dir Wind Speed Gust Speed Precip Events Conditions
12:00 AM 67 °F - 64 °F 85% 29.86 in 12 mi ENE 4.6 mph - -   Clear
12:00 AM 68.0 °F - 64.4 °F 88% 29.97 in - ENE 4.6 mph - N/A   Clear
1:00 AM 66.2 °F - 62.6 °F 88% 29.95 in - East 3.5 mph - N/A   Clear
2:00 AM 66.2 °F - 62.6 °F 88% 29.94 in - NNE 2.3 mph - N/A   Clear
3:00 AM 64 °F - 63 °F 96% 29.88 in 12 mi Calm Calm - -   Scattered Clouds
3:00 AM 64.4 °F - 62.6 °F 94% 29.94 in 6.2 mi Calm Calm - N/A   Scattered Clouds
4:00 AM 64.4 °F - 64.4 °F 100% 29.95 in - ENE 2.3 mph - N/A   Clear
5:00 AM 62.6 °F - 62.6 °F 100% 29.95 in - ENE 3.5 mph - N/A   Clear
6:00 AM 64 °F - 61 °F 87% 29.89 in 12 mi East 5.8 mph - -   Clear
6:00 AM 64.4 °F - 60.8 °F 88% 29.98 in - East 5.8 mph - N/A   Clear
7:00 AM 69.8 °F - 62.6 °F 78% 29.99 in - East 3.5 mph - N/A   Clear
8:00 AM 78.8 °F - 62.6 °F 57% 30.00 in - Calm Calm - N/A   Clear
9:00 AM 79 °F - 65 °F 52% 29.86 in 12 mi SSW 2.3 mph - -   Scattered Clouds
9:00 AM 78.8 °F - 64.4 °F 61% 30.00 in 6.2 mi SSW 2.3 mph - N/A   Partly Cloudy
10:00 AM 80.6 °F 82.3 °F 64.4 °F 58% 30.01 in 6.2 mi SW 6.9 mph - N/A   Scattered Clouds
11:00 AM 78.8 °F - 68.0 °F 69% 29.99 in 6.2 mi SW 10.4 mph - N/A   Scattered Clouds
12:00 PM 75 °F - 69 °F 75% 29.82 in 12 mi WSW 9.2 mph - - Rain Light Rain
12:00 PM 75.2 °F - 68.0 °F 78% 29.97 in 6.2 mi WSW 9.2 mph - N/A Rain Light Rain
1:00 PM 77.0 °F - 68.0 °F 74% 29.94 in 6.2 mi WSW 9.2 mph - N/A   Mostly Cloudy
2:00 PM 73.4 °F - 68.0 °F 83% 29.92 in 6.2 mi SW 8.1 mph - N/A Rain Light Rain
3:00 PM 71 °F - 69 °F 92% 29.77 in 6 mi WSW 3.5 mph - - Rain Light Drizzle
3:00 PM 71.6 °F - 69.8 °F 94% 29.91 in 6.2 mi WSW 3.5 mph - N/A   Drizzle
4:00 PM 69.8 °F - 69.8 °F 100% 29.91 in 6.2 mi West 5.8 mph - N/A   Light Drizzle
5:00 PM 69.8 °F - 68.0 °F 94% 29.93 in 5.0 mi West 4.6 mph - N/A Rain Light Rain
6:00 PM 68 °F - 67 °F 98% 29.82 in 3 mi WSW 3.5 mph - - Rain Light Rain
6:00 PM 68.0 °F - 68.0 °F 100% - 3.1 mi WSW 5.8 mph - N/A Rain Light Rain
7:00 PM 68.0 °F - 68.0 °F 100% 29.98 in 3.1 mi West 4.6 mph - N/A Rain Light Rain
7:25 PM 68.0 °F - 68.0 °F 100% 30.02 in 1.2 mi West 4.6 mph - N/A Rain Heavy Rain
8:00 PM 68.0 °F - 68.0 °F 100% 30.03 in 0.9 mi SW 3.5 mph - N/A Rain , Thunderstorm Thunderstorms and Rain
9:00 PM 68 °F - 67 °F 96% 29.91 in 5 mi West 4.6 mph - -   Mist
9:00 PM 68.0 °F - 68.0 °F 100% - 3.1 mi North 3.5 mph - N/A Rain Light Rain
10:00 PM 68.0 °F - 66.2 °F 94% 30.04 in 6.2 mi Calm Calm - N/A   Mostly Cloudy
11:00 PM 66.2 °F - 66.2 °F 100% 30.02 in 6.2 mi ESE 3.5 mph - N/A   Mostly Cloudy